Location: Cactus School
(34.5700°N, 118.0931°W)
Time: 07:57:17
(UTC-07:00)

Vanguard 1 Rocket - Pass Details

Date: 20 April 2024
Orbit: 650 x 4220 km, 34.3° (Epoch: 22 May)

Event Time Altitude Azimuth Distance (km) Brightness Sun altitude
Exits shadow 03:32:52 17° 185° (S) 6,399 11.3 -29.9°
Drops below altitude 10° 03:38:39 10° 173° (S) 7,225 11.6 -29.0°
Sets 03:47:02 0° 161° (SSE) 8,443 12.1 -27.7°
